CW9206 Weather Reports


time (UTC)temp
C
wind
direction
speed
KPH
gust
KPH
rain 1hr
cm
rain 24hr
cm
rain mn
cm
humidity
%
barometer
mb
20260507075244 13 307 0.0 0.0 0.00 0.00 0.00 13 1017.4
20260507074243 13 307 0.0 0.0 0.00 0.00 0.00 13 1017.4
20260507073743 13 307 0.0 0.0 0.00 0.00 0.00 13 1017.4
20260507073244 13 307 0.0 0.0 0.00 0.00 0.00 13 1017.3
20260507072743 13 307 0.0 0.0 0.00 0.00 0.00 13 1017.3
20260507072243 13 307 0.0 0.0 0.00 0.00 0.00 13 1017.3
20260507071743 13 307 0.0 0.0 0.00 0.00 0.00 13 1017.4
20260507071243 12 307 0.0 0.0 0.00 0.00 0.00 14 1017.3
20260507070743 12 307 0.0 0.0 0.00 0.00 0.00 14 1017.4
20260507065742 12 307 0.0 0.0 0.00 0.00 0.00 15 1017.4
20260507065243 12 307 0.0 0.0 0.00 0.00 0.00 15 1017.5
20260507064743 12 307 0.0 0.0 0.00 0.00 0.00 16 1017.5
20260507064243 12 307 0.0 0.0 0.00 0.00 0.00 16 1017.5
20260507063743 12 307 0.0 0.0 0.00 0.00 0.00 16 1017.5
20260507063242 12 307 0.0 0.0 0.00 0.00 0.00 17 1017.5
20260507062742 12 307 0.0 0.0 0.00 0.00 0.00 18 1017.5
20260507062242 12 307 0.0 0.0 0.00 0.00 0.00 18 1017.5
20260507061742 12 307 0.0 0.0 0.00 0.00 0.00 19 1017.4
20260507061242 12 307 0.0 0.0 0.00 0.00 0.00 19 1017.5
20260507060742 12 307 0.0 0.0 0.00 0.00 0.00 19 1017.5
20260507060242 12 307 0.0 0.0 0.00 0.00 0.00 19 1017.5
20260507055742 12 307 0.0 0.0 0.00 0.00 0.00 19 1017.5
20260507055242 12 307 0.0 0.0 0.00 0.00 0.00 19 1017.4
20260507054742 12 307 0.0 0.0 0.00 0.00 0.00 19 1017.4
20260507054242 12 307 0.0 0.0 0.00 0.00 0.00 18 1017.4
20260507053242 13 307 0.0 0.0 0.00 0.00 0.00 18 1017.5
20260507052741 13 307 0.0 0.0 0.00 0.00 0.00 18 1017.4
20260507052242 13 307 0.0 0.0 0.00 0.00 0.00 19 1017.5
20260507051741 13 307 0.0 0.0 0.00 0.00 0.00 19 1017.6
20260507050741 13 307 0.0 0.0 0.00 0.00 0.00 19 1017.6
20260507045741 13 307 0.0 0.0 0.00 0.00 0.00 20 1017.6
20260507045241 13 307 0.0 0.0 0.00 0.00 0.00 20 1017.5
20260507044741 13 307 0.0 0.0 0.00 0.00 0.00 20 1017.5
20260507044241 13 307 0.0 0.0 0.00 0.00 0.00 21 1017.4
20260507043741 13 307 0.0 0.0 0.00 0.00 0.00 21 1017.4
20260507043240 13 307 0.0 0.0 0.00 0.00 0.00 22 1017.3
20260507042740 13 307 0.0 0.0 0.00 0.00 0.00 22 1017.3
20260507042241 13 307 0.0 0.0 0.00 0.00 0.00 23 1017.2
20260507041241 14 307 0.0 0.0 0.00 0.00 0.00 25 1017.2
20260507040240 14 307 0.0 1.6 0.00 0.00 0.00 27 1017.1
20260507034740 15 227 0.0 0.0 0.00 0.00 0.00 29 1016.9
20260507033740 15 230 0.0 0.0 0.00 0.00 0.00 31 1016.7
20260507033240 15 230 0.0 6.4 0.00 0.00 0.00 32 1016.7
20260507032240 15 230 0.0 4.8 0.00 0.00 0.00 34 1016.6
20260507031739 15 229 0.0 0.0 0.00 0.00 0.00 35 1016.6
20260507031239 15 229 0.0 1.6 0.00 0.00 0.00 36 1016.6
20260507030740 16 229 0.0 6.4 0.00 0.00 0.00 37 1016.4
20260507030241 16 229 0.0 6.4 0.00 0.00 0.00 38 1016.5
20260507025739 16 227 0.0 6.4 0.00 0.00 0.00 38 1016.4
20260507025239 16 227 0.0 6.4 0.00 0.00 0.00 39 1016.3
20260507024739 16 226 0.0 4.8 0.00 0.00 0.00 40 1016.3
20260507024240 17 226 0.0 4.8 0.00 0.00 0.00 40 1016.4
20260507023739 17 227 0.0 0.0 0.00 0.00 0.00 41 1016.3
20260507023239 17 227 0.0 8.0 0.00 0.00 0.00 41 1016.3
20260507022739 17 226 0.0 8.0 0.00 0.00 0.00 42 1016.2
20260507022239 17 313 0.0 9.7 0.00 0.00 0.00 43 1016.1
20260507021738 17 313 0.0 9.7 0.00 0.00 0.00 44 1016.1
20260507021239 17 240 0.0 9.7 0.00 0.00 0.00 44 1016.1
20260507020739 18 241 0.0 11.3 0.00 0.00 0.00 45 1016.1
20260507015739 18 302 0.0 9.7 0.00 0.00 0.00 46 1016.0
20260507015239 18 309 4.8 9.7 0.00 0.00 0.00 46 1016.0
20260507014739 19 310 0.0 9.7 0.00 0.00 0.00 47 1015.8
20260507014238 19 313 0.0 14.5 0.00 0.00 0.00 47 1015.9
20260507013738 20 235 1.6 14.5 0.00 0.00 0.00 47 1015.7
20260507013238 20 200 6.4 11.3 0.00 0.00 0.00 47 1015.8
20260507011738 20 258 0.0 19.3 0.00 0.00 0.00 47 1015.7
20260507010738 21 213 8.0 16.1 0.00 0.00 0.00 47 1015.8
20260507010237 21 311 0.0 17.7 0.00 0.00 0.00 47 1015.8
20260507005737 21 246 4.8 17.7 0.00 0.00 0.00 46 1015.7
20260507005238 21 267 0.0 16.1 0.00 0.00 0.00 46 1015.7
20260507004737 21 228 6.4 16.1 0.00 0.00 0.00 46 1015.6
20260507004237 21 260 6.4 16.1 0.00 0.00 0.00 46 1015.7
20260507003739 22 269 4.8 11.3 0.00 0.00 0.00 46 1015.6
20260507003238 22 238 1.6 16.1 0.00 0.00 0.00 45 1015.6
20260507002738 22 246 1.6 16.1 0.00 0.00 0.00 45 1015.6
20260507002237 22 235 6.4 14.5 0.00 0.00 0.00 45 1015.5
20260507001737 22 123 3.2 16.1 0.00 0.00 0.00 45 1015.5
20260507001237 22 268 3.2 16.1 0.00 0.00 0.00 45 1015.5
20260507000237 22 255 0.0 20.9 0.00 0.00 0.00 45 1015.4
20260506235737 22 253 1.6 20.9 0.00 0.00 0.00 45 1015.4
20260506235237 22 178 0.0 14.5 0.00 0.00 0.00 45 1015.5
20260506234736 22 237 6.4 17.7 0.00 0.00 0.00 45 1015.5
20260506234236 22 194 4.8 17.7 0.00 0.00 0.00 45 1015.4
20260506233736 22 300 4.8 14.5 0.00 0.00 0.00 45 1015.4
20260506233236 22 157 0.0 16.1 0.00 0.00 0.00 45 1015.5
20260506232736 22 200 0.0 19.3 0.00 0.00 0.00 45 1015.4
20260506232236 22 223 0.0 19.3 0.00 0.00 0.00 45 1015.4
20260506231737 22 234 0.0 16.1 0.00 0.00 0.00 45 1015.4
20260506231236 22 315 4.8 16.1 0.00 0.00 0.00 45 1015.5
20260506230236 23 209 3.2 19.3 0.00 0.00 0.00 44 1015.6
20260506225736 23 232 0.0 19.3 0.00 0.00 0.00 43 1015.5
20260506225235 23 273 1.6 14.5 0.00 0.00 0.00 43 1015.6
20260506224735 23 243 0.0 16.1 0.00 0.00 0.00 43 1015.7
20260506223735 23 304 1.6 17.7 0.00 0.00 0.00 43 1015.7
20260506223235 23 238 3.2 19.3 0.00 0.00 0.00 43 1015.8
20260506222736 24 269 0.0 19.3 0.00 0.00 0.00 43 1015.9
20260506221735 23 326 3.2 20.9 0.00 0.00 0.00 43 1015.8
20260506221235 23 312 6.4 24.1 0.00 0.00 0.00 43 1016.0
20260506220735 23 286 0.0 24.1 0.00 0.00 0.00 43 1016.1
20260506220235 23 264 0.0 16.1 0.00 0.00 0.00 43 1016.1
20260506215735 23 238 3.2 16.1 0.00 0.00 0.00 43 1016.2
20260506215235 23 320 3.2 19.3 0.00 0.00 0.00 43 1016.1
20260506214735 23 229 1.6 22.5 0.00 0.00 0.00 43 1016.2
20260506214234 23 283 0.0 22.5 0.00 0.00 0.00 43 1016.2
20260506213734 23 215 1.6 20.9 0.00 0.00 0.00 43 1016.2
20260506212734 23 203 4.8 22.5 0.00 0.00 0.00 43 1016.3
20260506212234 23 233 8.0 19.3 0.00 0.00 0.00 43 1016.2
20260506211734 23 186 3.2 19.3 0.00 0.00 0.00 43 1016.1
20260506211234 23 301 11.3 19.3 0.00 0.00 0.00 44 1016.3
20260506210734 23 325 9.7 19.3 0.00 0.00 0.00 44 1016.2
20260506205734 23 265 6.4 20.9 0.00 0.00 0.00 43 1016.3
20260506204734 23 221 4.8 24.1 0.00 0.00 0.00 43 1016.3
20260506204234 23 303 0.0 24.1 0.00 0.00 0.00 43 1016.2
20260506203734 23 214 4.8 19.3 0.00 0.00 0.00 42 1016.2
20260506203234 23 306 4.8 17.7 0.00 0.00 0.00 42 1016.2
20260506202733 23 17 1.6 17.7 0.00 0.00 0.00 42 1016.3
20260506202233 23 257 14.5 17.7 0.00 0.00 0.00 42 1016.2
20260506201733 24 320 3.2 20.9 0.00 0.00 0.00 42 1016.3
20260506201233 24 312 9.7 20.9 0.00 0.00 0.00 41 1016.4
20260506200733 24 261 6.4 17.7 0.00 0.00 0.00 41 1016.4
20260506200233 24 263 8.0 17.7 0.00 0.00 0.00 41 1016.4
20260506195733 24 222 0.0 12.9 0.00 0.00 0.00 41 1016.4
20260506195234 24 291 1.6 12.9 0.00 0.00 0.00 41 1016.4
20260506194733 24 196 4.8 9.7 0.00 0.00 0.00 41 1016.4
20260506193733 24 248 3.2 17.7 0.00 0.00 0.00 40 1016.3
20260506193233 24 246 4.8 9.7 0.00 0.00 0.00 40 1016.3
20260506192734 24 199 0.0 9.7 0.00 0.00 0.00 40 1016.4
20260506191732 24 213 4.8 9.7 0.00 0.00 0.00 40 1016.5
20260506191232 24 220 8.0 11.3 0.00 0.00 0.00 39 1016.6
20260506190732 24 248 4.8 11.3 0.00 0.00 0.00 39 1016.7
20260506190232 23 288 6.4 8.0 0.00 0.00 0.00 39 1016.7
20260506185732 23 145 0.0 6.4 0.00 0.00 0.00 39 1016.8
20260506184734 23 331 0.0 11.3 0.00 0.00 0.00 39 1017.0
20260506183732 23 221 3.2 11.3 0.00 0.00 0.00 38 1017.1
20260506183232 23 186 0.0 11.3 0.00 0.00 0.00 37 1017.2
20260506182232 22 288 0.0 9.7 0.00 0.00 0.00 37 1017.3
20260506181732 22 182 3.2 8.0 0.00 0.00 0.00 37 1017.4
20260506181232 22 178 3.2 9.7 0.00 0.00 0.00 36 1017.4
20260506180732 21 264 1.6 9.7 0.00 0.00 0.00 36 1017.4
20260506180231 21 257 1.6 9.7 0.00 0.00 0.00 35 1017.5
20260506175732 21 270 0.0 16.1 0.00 0.00 0.00 35 1017.6
20260506175232 21 300 0.0 16.1 0.00 0.00 0.00 35 1017.5
20260506174232 20 171 3.2 8.0 0.00 0.00 0.00 34 1017.4
20260506173732 20 172 3.2 6.4 0.00 0.00 0.00 34 1017.5
20260506173231 20 171 0.0 6.4 0.00 0.00 0.00 34 1017.5
20260506172731 19 165 0.0 8.0 0.00 0.00 0.00 34 1017.4
20260506172231 19 182 3.2 8.0 0.00 0.00 0.00 33 1017.5
20260506171231 18 180 1.6 8.0 0.00 0.00 0.00 33 1017.5
20260506170731 18 179 0.0 8.0 0.00 0.00 0.00 32 1017.5
20260506165731 18 198 0.0 8.0 0.00 0.00 0.00 32 1017.5
20260506164730 17 193 0.0 8.0 0.00 0.00 0.00 31 1017.4
20260506164230 17 192 1.6 8.0 0.00 0.00 0.00 31 1017.4
20260506163731 17 191 0.0 8.0 0.00 0.00 0.00 31 1017.4
20260506163230 16 161 1.6 6.4 0.00 0.00 0.00 30 1017.3
20260506162730 16 160 4.8 6.4 0.00 0.00 0.00 30 1017.4
20260506162231 16 161 0.0 6.4 0.00 0.00 0.00 30 1017.4
20260506161730 16 106 3.2 6.4 0.00 0.00 0.00 30 1017.4
20260506161230 16 338 0.0 3.2 0.00 0.00 0.00 29 1017.4
20260506160730 16 338 0.0 3.2 0.00 0.00 0.00 29 1017.5
20260506160230 16 338 0.0 4.8 0.00 0.00 0.00 28 1017.5
20260506155730 15 338 1.6 6.4 0.00 0.00 0.00 28 1017.5
20260506155230 15 338 0.0 9.7 0.00 0.00 0.00 27 1017.5
20260506154730 15 339 0.0 9.7 0.00 0.00 0.00 27 1017.5
20260506154230 15 339 4.8 6.4 0.00 0.00 0.00 26 1017.4
20260506152729 15 338 0.0 6.4 0.00 0.00 0.00 23 1017.5
20260506152230 15 339 0.0 6.4 0.00 0.00 0.00 22 1017.5
20260506151229 14 339 0.0 1.6 0.00 0.00 0.00 20 1017.5
20260506150730 14 339 0.0 1.6 0.00 0.00 0.00 20 1017.5
20260506150229 13 339 0.0 0.0 0.00 0.00 0.00 18 1017.4
20260506145729 13 338 0.0 0.0 0.00 0.00 0.00 18 1017.6
20260506145229 13 338 0.0 0.0 0.00 0.00 0.00 18 1017.5
20260506144729 13 339 0.0 4.8 0.00 0.00 0.00 18 1017.5
20260506144229 13 339 0.0 4.8 0.00 0.00 0.00 18 1017.5
20260506143729 13 339 0.0 1.6 0.00 0.00 0.00 17 1017.4
20260506143229 13 339 0.0 0.0 0.00 0.00 0.00 17 1017.4
20260506142229 12 338 0.0 0.0 0.00 0.00 0.00 17 1017.4
20260506141729 12 340 0.0 0.0 0.00 0.00 0.00 17 1017.4
20260506140728 12 334 0.0 0.0 0.00 0.00 0.00 16 1017.4
20260506140229 12 303 0.0 0.0 0.00 0.00 0.00 16 1017.4
20260506135728 12 303 0.0 0.0 0.00 0.00 0.00 16 1017.4
20260506135229 12 304 0.0 0.0 0.00 0.00 0.00 16 1017.3
20260506134729 12 304 0.0 0.0 0.00 0.00 0.00 16 1017.4
20260506134228 12 304 0.0 0.0 0.00 0.00 0.00 16 1017.3
20260506133729 12 304 0.0 0.0 0.00 0.00 0.00 16 1017.4
20260506133228 12 304 0.0 0.0 0.00 0.00 0.00 16 1017.3
20260506132728 12 304 0.0 0.0 0.00 0.00 0.00 16 1017.2
20260506132228 12 304 0.0 0.0 0.00 0.00 0.00 16 1017.1
20260506131728 12 304 0.0 0.0 0.00 0.00 0.00 16 1017.1
20260506130228 12 304 0.0 0.0 0.00 0.00 0.00 16 1016.9
20260506125228 12 304 0.0 0.0 0.00 0.00 0.00 16 1016.9
20260506124728 12 304 0.0 0.0 0.00 0.00 0.00 16 1017.0
20260506124228 12 304 0.0 0.0 0.00 0.00 0.00 16 1017.0
20260506123727 12 304 0.0 0.0 0.00 0.00 0.00 16 1016.9
20260506123227 12 304 0.0 0.0 0.00 0.00 0.00 15 1016.9
20260506122727 12 295 0.0 0.0 0.00 0.00 0.00 15 1017.0
20260506121728 12 295 0.0 0.0 0.00 0.00 0.00 15 1017.0
20260506121226 12 295 0.0 0.0 0.00 0.00 0.00 15 1016.9
20260506120727 12 295 0.0 0.0 0.00 0.00 0.00 15 1016.9
20260506120227 12 295 0.0 0.0 0.00 0.00 0.00 15 1016.9
20260506115227 12 295 0.0 0.0 0.00 0.00 0.00 15 1017.2
20260506114726 12 295 0.0 0.0 0.00 0.00 0.00 15 1017.2
20260506114227 12 295 0.0 0.0 0.00 0.00 0.00 15 1017.3
20260506113726 12 295 0.0 0.0 0.00 0.00 0.00 15 1017.3
20260506112226 12 295 0.0 0.0 0.00 0.00 0.00 15 1017.2
20260506111726 12 295 0.0 0.0 0.00 0.00 0.00 15 1017.2
20260506111227 12 295 0.0 0.0 0.00 0.00 0.00 15 1017.1
20260506110726 12 295 0.0 0.0 0.00 0.00 0.00 15 1017.1
20260506110226 12 295 0.0 0.0 0.00 0.00 0.00 15 1017.2
20260506105726 12 295 0.0 0.0 0.00 0.00 0.00 15 1017.2
20260506104726 12 295 0.0 0.0 0.00 0.00 0.00 15 1017.1
20260506103725 12 295 0.0 0.0 0.00 0.00 0.00 15 1017.1
20260506103225 12 295 0.0 0.0 0.00 0.00 0.00 15 1017.1
20260506102726 12 295 0.0 0.0 0.00 0.00 0.00 15 1017.1
20260506101725 12 295 0.0 0.0 0.00 0.00 0.00 15 1017.0
20260506101225 12 295 0.0 0.0 0.00 0.00 0.00 15 1017.1
20260506100725 12 295 0.0 0.0 0.00 0.00 0.00 15 1017.1
20260506100225 12 295 0.0 0.0 0.00 0.00 0.00 15 1017.0
20260506095725 12 295 0.0 0.0 0.00 0.00 0.00 15 1016.9
20260506094225 12 295 3.2 3.2 0.00 0.00 0.00 15 1017.0
20260506093224 12 295 0.0 0.0 0.00 0.00 0.00 15 1017.0
20260506092725 12 295 0.0 3.2 0.00 0.00 0.00 15 1017.0
20260506092225 12 295 0.0 3.2 0.00 0.00 0.00 15 1017.0
20260506091724 12 295 0.0 0.0 0.00 0.00 0.00 15 1017.1
20260506091225 12 295 0.0 0.0 0.00 0.00 0.00 14 1017.1
20260506090724 12 295 0.0 0.0 0.00 0.00 0.00 14 1017.1
20260506085724 12 295 0.0 1.6 0.00 0.00 0.00 14 1017.2
20260506085224 12 295 0.0 8.0 0.00 0.00 0.00 14 1017.3
20260506084724 12 295 0.0 8.0 0.00 0.00 0.00 14 1017.3
20260506084224 12 294 0.0 6.4 0.00 0.00 0.00 14 1017.4
20260506083724 12 294 0.0 0.0 0.00 0.00 0.00 14 1017.3
20260506083223 12 294 0.0 0.0 0.00 0.00 0.00 14 1017.4
20260506082724 12 294 0.0 0.0 0.00 0.00 0.00 14 1017.4
20260506082224 12 294 0.0 0.0 0.00 0.00 0.00 14 1017.5
20260506081723 12 294 0.0 0.0 0.00 0.00 0.00 15 1017.3
20260506080723 12 294 0.0 0.0 0.00 0.00 0.00 15 1017.4
20260506080223 11 294 0.0 0.0 0.00 0.00 0.00 15 1017.3